Retour au catalogue

CZ-6A DEB

ActifPO
NORAD 61281·DEBRIS·🇨🇳 China

Lancé Aug 6, 2024 depuis Taiyuan Satellite Launch Center

Loading…

Prochains Passages (prochaines 24 heures)

TLE

FraisSource: Space-Track

Époque: Sep 14, 2026, 11:03 UTC

1 61281U 24140SS  26257.46078526  .00000646  00000-0  19236-3 0  9999
2 61281  89.0364 265.4736 0067616  43.3289 317.3201 14.40658059107667

Suivez CZ-6A DEB en temps réel avec AllMySat

Download on the App Store